Home   Weather   Öhringen   Past weeks

Flag for Germany Past Weather in Öhringen, Baden-Württemberg, Germany — Yesterday and Last 2 Weeks

Now
68 °F

Broken clouds.


Feels Like: 68 °F
Forecast: 57 / 81 °F
Wind: 13 mph from West

Location: Niederstetten

Current Time: Jul 28, 2017 at 5:18:42 pm

Latest Report: Jul 28, 2017 at 4:20 pm


Visibility: N/A

Pressure: 30.01 "Hg

Humidity: 53%

Dew Point: 50 °F

Location of ÖhringenLocation

Past Weather in Öhringen — Graph

°F

Öhringen Temperature Yesterday

Maximum temperature yesterday: 66 °F (at 3:20 pm)
Minimum temperature yesterday: 52 °F (at 4:20 am)
Average temperature yesterday: 60 °F

High & Low Weather Summary for the Past Weeks

 TemperatureHumidityPressure
High90 °F (Jul 19, 5:20 pm)100% (Jul 18, 5:20 am)30.30 "Hg (Jul 18, 5:20 am)
Low50 °F (Jul 16, 1:20 am)31% (Jul 19, 5:20 pm)29.65 "Hg (Jul 26, 1:20 am)
Average64 °F74%29.98 "Hg
* Reported Jul 13 4:20 pm — Jul 28 4:20 pm, Öhringen. Weather by CustomWeather, © 2017

Note: Actual official high and low records may vary slightly from our data, if they occured in-between our weather recording intervals... More about our weather records

Advertising

Öhringen Weather History for the Previous 24 Hours

Scroll right to see more
 ConditionsComfort  
Time TempWeatherWind HumidityBarometerVisibility
4:20 pm
Fri, Jul 28
68 °FBroken clouds.13 mph53%30.01 "HgN/A
3:20 pm66 °FBroken clouds.14 mph52%30.01 "HgN/A
2:20 pm64 °FBroken clouds.12 mph60%30.01 "HgN/A
1:20 pm64 °FBroken clouds.15 mph56%30.01 "HgN/A
12:20 pm64 °FPartly sunny.10 mph64%30.01 "HgN/A
12:00 pm63 °FPartly sunny.12 mph64%29.98 "HgN/A
11:20 am63 °FPartly sunny.12 mph64%29.98 "HgN/A
10:20 am61 °FPartly sunny.9 mph72%29.98 "HgN/A
9:20 am61 °FPartly sunny.9 mph72%29.95 "HgN/A
8:20 am59 °FScattered clouds.9 mph82%29.95 "HgN/A
7:20 am57 °FScattered clouds.8 mph94%29.92 "HgN/A
6:20 am57 °FScattered clouds.9 mph94%29.89 "HgN/A
5:20 am57 °FPassing clouds.10 mph94%29.89 "HgN/A
4:45 am59 °FPassing clouds.10 mph88%29.86 "HgN/A
4:20 am59 °FPassing clouds.10 mph88%29.86 "HgN/A
3:20 am59 °FPartly cloudy.12 mph94%29.86 "HgN/A
2:20 am61 °FPassing clouds.12 mph94%29.86 "HgN/A
1:20 am61 °FPassing clouds.8 mph94%29.83 "HgN/A
12:20 am61 °FPassing clouds.6 mph94%29.83 "HgN/A
11:20 pm
Thu, Jul 27
61 °FLight rain. Passing clouds.5 mph100%29.83 "HgN/A
10:20 pm61 °FPassing clouds.7 mph94%29.83 "HgN/A
9:20 pm63 °FPassing clouds.3 mph88%29.83 "HgN/A
8:20 pm64 °FPartly sunny.8 mph83%29.83 "HgN/A
7:20 pm64 °FMostly cloudy.7 mph88%29.83 "HgN/A
6:20 pm66 °FPartly sunny.12 mph78%29.83 "HgN/A
5:20 pm66 °FPartly sunny.13 mph78%29.83 "HgN/A
Weather by CustomWeather, © 2017

See weather overviewHow to use our weather pages